Time,TemperatureF,DewpointF,PressureIn,WindDirection,WindDirectionDegrees,WindSpeedMPH,WindSpeedGustMPH,Humidity,HourlyPrecipIn,Conditions,Clouds,dailyrainin,SoftwareType,DateUTC
2013-05-13 01:02:00,59.0,58.0,30.00,North,0,0.0,0.0,96,40.44,,,-99.99,,2013-05-13 08:02:00,
2013-05-13 01:21:00,58.0,57.0,30.01,North,0,0.0,0.0,97,40.44,,,-99.99,,2013-05-13 08:21:00,
2013-05-13 01:41:00,58.0,57.0,30.01,North,0,0.0,0.0,97,40.44,,,-99.99,,2013-05-13 08:41:00,
2013-05-13 01:51:00,59.0,58.0,30.00,North,0,0.0,0.0,97,40.44,,,-99.99,,2013-05-13 08:51:00,
2013-05-13 02:52:00,58.0,57.0,30.00,North,0,0.0,0.0,97,40.44,,,-99.99,,2013-05-13 09:52:00,
2013-05-13 03:02:00,58.0,57.0,30.00,North,0,0.0,0.0,97,40.44,,,-99.99,,2013-05-13 10:02:00,
2013-05-13 03:12:00,58.0,57.0,30.00,North,0,0.0,0.0,97,40.44,,,-99.99,,2013-05-13 10:12:00,
2013-05-13 03:22:00,58.0,57.0,30.00,North,0,0.0,0.0,97,40.44,,,-99.99,,2013-05-13 10:22:00,
2013-05-13 03:32:00,58.0,57.0,30.00,North,0,0.0,0.0,97,40.44,,,-99.99,,2013-05-13 10:32:00,
2013-05-13 03:42:00,58.0,57.0,30.00,North,0,0.0,0.0,97,40.44,,,-99.99,,2013-05-13 10:42:00,
2013-05-13 03:52:00,58.0,57.0,30.00,North,0,0.0,0.0,97,40.44,,,-99.99,,2013-05-13 10:52:00,
2013-05-13 04:21:00,58.0,57.0,30.00,South,176,0.0,4.0,97,40.44,,,-99.99,,2013-05-13 11:21:00,
2013-05-13 04:32:00,58.0,57.0,30.00,South,176,0.0,4.0,97,40.44,,,-99.99,,2013-05-13 11:32:00,
2013-05-13 04:41:00,58.0,57.0,30.00,South,176,0.0,4.0,97,40.44,,,-99.99,,2013-05-13 11:41:00,
2013-05-13 04:51:00,58.0,57.0,30.00,South,176,0.0,4.0,97,40.44,,,-99.99,,2013-05-13 11:51:00,
2013-05-13 05:01:00,58.0,57.0,29.99,North,0,0.0,0.0,97,40.44,,,-99.99,,2013-05-13 12:01:00,
2013-05-13 05:11:00,58.0,57.0,29.99,North,0,0.0,0.0,97,40.44,,,-99.99,,2013-05-13 12:11:00,
2013-05-13 05:21:00,58.0,57.0,29.99,North,0,0.0,0.0,97,40.44,,,-99.99,,2013-05-13 12:21:00,
2013-05-13 05:32:00,58.0,57.0,29.99,North,0,0.0,0.0,97,40.44,,,-99.99,,2013-05-13 12:32:00,
2013-05-13 10:32:00,60.0,58.0,29.98,SSW,212,1.0,4.0,94,40.45,,,-99.99,,2013-05-13 17:32:00,
2013-05-13 13:34:00,66.0,54.0,29.93,WSW,246,4.0,12.0,65,40.45,,,-99.99,,2013-05-13 20:34:00,
2013-05-13 14:23:00,66.0,53.0,29.93,SSW,198,4.0,11.0,62,40.45,,,-99.99,,2013-05-13 21:23:00,
2013-05-13 14:33:00,66.0,51.0,29.92,South,191,4.0,12.0,58,40.45,,,-99.99,,2013-05-13 21:33:00,
2013-05-13 14:43:00,66.0,51.0,29.92,South,191,4.0,12.0,58,40.45,,,-99.99,,2013-05-13 21:43:00,
2013-05-13 14:52:00,66.0,51.0,29.92,South,191,4.0,12.0,58,40.45,,,-99.99,,2013-05-13 21:52:00,
2013-05-13 15:02:00,66.0,51.0,29.92,South,191,4.0,12.0,58,40.45,,,-99.99,,2013-05-13 22:02:00,
2013-05-13 15:12:00,66.0,51.0,29.92,South,191,4.0,12.0,58,40.45,,,-99.99,,2013-05-13 22:12:00,
2013-05-13 15:43:00,56.0,55.0,29.99,SSW,194,5.0,10.0,96,40.56,,,-99.99,,2013-05-13 22:43:00,
2013-05-13 15:52:00,56.0,55.0,29.99,SSW,194,5.0,10.0,96,40.56,,,-99.99,,2013-05-13 22:52:00,
2013-05-13 16:01:00,56.0,55.0,29.99,SSW,197,4.0,8.0,96,40.56,,,-99.99,,2013-05-13 23:01:00,
2013-05-13 16:23:00,56.0,55.0,29.99,South,180,3.0,8.0,96,40.57,,,-99.99,,2013-05-13 23:23:00,
2013-05-13 16:33:00,55.0,54.0,30.00,ESE,103,1.0,12.0,96,40.66,,,-99.99,,2013-05-13 23:33:00,
2013-05-13 16:42:00,55.0,54.0,30.00,ESE,103,1.0,12.0,96,40.66,,,-99.99,,2013-05-13 23:42:00,
2013-05-13 16:53:00,55.0,54.0,30.00,ESE,103,1.0,12.0,96,40.66,,,-99.99,,2013-05-13 23:53:00,
2013-05-13 17:02:00,55.0,54.0,30.00,ESE,103,1.0,12.0,96,40.66,,,-99.99,,2013-05-14 00:02:00,
2013-05-13 17:12:00,55.0,54.0,30.00,ESE,103,1.0,12.0,96,40.66,,,-99.99,,2013-05-14 00:12:00,
2013-05-13 18:01:00,53.0,52.0,30.04,North,359,2.0,14.0,96,40.72,,,-99.99,,2013-05-14 01:01:00,
2013-05-13 18:11:00,53.0,52.0,30.04,North,359,2.0,14.0,96,40.72,,,-99.99,,2013-05-14 01:11:00,
2013-05-13 18:21:00,53.0,52.0,30.04,North,359,2.0,14.0,96,40.72,,,-99.99,,2013-05-14 01:21:00,
2013-05-13 18:31:00,53.0,52.0,30.04,North,359,2.0,14.0,96,40.72,,,-99.99,,2013-05-14 01:31:00,
2013-05-13 20:33:00,51.0,50.0,30.11,North,359,2.0,10.0,97,40.80,,,-99.99,,2013-05-14 03:33:00,
2013-05-13 20:53:00,51.0,50.0,30.12,North,354,1.0,9.0,97,40.80,,,-99.99,,2013-05-14 03:53:00,
2013-05-13 21:02:00,51.0,50.0,30.13,North,0,0.0,0.0,97,40.80,,,-99.99,,2013-05-14 04:02:00,
2013-05-13 21:32:00,50.0,49.0,30.14,North,0,0.0,0.0,97,40.80,,,-99.99,,2013-05-14 04:32:00,
2013-05-13 22:01:00,49.0,48.0,30.14,North,0,0.0,0.0,97,40.80,,,-99.99,,2013-05-14 05:01:00,
2013-05-13 22:32:00,48.0,47.0,30.14,South,191,3.0,8.0,96,40.80,,,-99.99,,2013-05-14 05:32:00,
2013-05-13 23:01:00,48.0,47.0,30.14,ESE,114,0.0,2.0,97,40.80,,,-99.99,,2013-05-14 06:01:00,
2013-05-13 23:31:00,47.0,46.0,30.14,North,0,0.0,0.0,97,40.80,,,-99.99,,2013-05-14 06:31:00,
2013-05-13 23:42:00,47.0,46.0,30.14,North,0,0.0,0.0,97,40.80,,,-99.99,,2013-05-14 06:42:00,